This is the latest recevied weather packets stored in our database for station/object KD9CCP. If no packets are shown the sender has not sent any weather packets the latest 10 day(s).
| Time | Temp. | Humidity | Pressure | Rain* | Wind** | Luminosity | Snow |
|---|---|---|---|---|---|---|---|
| 1777980813 | 2.78° C | 73% | 1005.9 hPa | 0 mm | - | 8 W/m² | - |
| 1777980509 | 2.78° C | 75% | 1005.7 hPa | 0 mm | - | 8 W/m² | - |
| 1777980206 | 2.78° C | 72% | 1005.7 hPa | 0 mm | - | 6 W/m² | - |
| 1777979902 | 2.78° C | 72% | 1005.7 hPa | 0 mm | - | 6 W/m² | - |
| 1777979597 | 2.78° C | 72% | 1005.5 hPa | 0 mm | - | 3 W/m² | - |
| 1777979294 | 2.78° C | 72% | 1005.7 hPa | 0 mm | - | 3 W/m² | - |
| 1777978991 | 2.78° C | 72% | 1005.4 hPa | 0 mm | - | 2 W/m² | - |
| 1777978688 | 2.78° C | 73% | 1005.5 hPa | 0 mm | - | 0 W/m² | - |
| 1777978383 | 2.78° C | 73% | 1005.4 hPa | 0 mm | - | 0 W/m² | - |
| 1777978080 | 2.78° C | 73% | 1005.3 hPa | 0 mm | - | 0 W/m² | - |
| 1777977778 | 2.78° C | 73% | 1005.2 hPa | 0 mm | - | 0 W/m² | - |
| 1777977474 | 2.78° C | 73% | 1005.2 hPa | 0 mm | - | 0 W/m² | - |
| 1777977172 | 2.78° C | 74% | 1005.2 hPa | 0 mm | - | 0 W/m² | - |
| 1777976869 | 2.78° C | 73% | 1005.1 hPa | 0 mm | - | 0 W/m² | - |
| 1777976566 | 3.33° C | 75% | 1005.2 hPa | 0 mm | - | 0 W/m² | - |
| 1777976266 | 3.33° C | 74% | 1005.3 hPa | 0 mm | - | 0 W/m² | - |
| 1777975961 | 3.33° C | 77% | 1005.3 hPa | 0 mm | - | 0 W/m² | - |
| 1777975658 | 2.78° C | 75% | 1005 hPa | 0 mm | - | 0 W/m² | - |
| 1777975355 | 2.78° C | 75% | 1004.9 hPa | 0 mm | - | 0 W/m² | - |
| 1777975050 | 2.78° C | 75% | 1005.1 hPa | 0 mm | - | 0 W/m² | - |
| 1777974748 | 2.78° C | 78% | 1004.8 hPa | 0 mm | - | 0 W/m² | - |
| 1777974443 | 2.78° C | 74% | 1004.9 hPa | 0 mm | - | 0 W/m² | - |
| 1777974140 | 2.78° C | 74% | 1005 hPa | 0 mm | - | 0 W/m² | - |
| 1777973836 | 2.78° C | 73% | 1004.9 hPa | 0 mm | - | 0 W/m² | - |
| 1777973534 | 2.78° C | 73% | 1004.7 hPa | 0 mm | - | 0 W/m² | - |
* Rain latest hour (hover to see other rain measurements)
** Current wind speed in m/s (hover to see current wind gust speed)